This is the latest recevied weather packets stored in our database for station/object OE3UKW. If no packets are shown the sender has not sent any weather packets the latest 1 day(s).
| Time | Temp. | Humidity | Pressure | Rain* | Wind** | Luminosity | Snow |
|---|---|---|---|---|---|---|---|
| 1836274444 | 10.56° C | 73% | 1025.6 hPa | 0 mm | 0 m/s | 0 W/m² | - |
| 1836274294 | 10.56° C | 73% | 1025.4 hPa | 0 mm | 0 m/s | 0 W/m² | - |
| 1778040670 | 11.67° C | 67% | 1009.2 hPa | 0 mm | 0 m/s | 23 W/m² | - |
| 1778040070 | 11.67° C | 67% | 1009 hPa | 0 mm | 1.34 m/s, 124° | 25 W/m² | - |
| 1778039470 | 11.67° C | 67% | 1009 hPa | 0 mm | 1.79 m/s, 124° | 15 W/m² | - |
| 1778038870 | 11.67° C | 67% | 1008.9 hPa | 0 mm | 1.79 m/s, 127° | 9 W/m² | - |
| 1778038270 | 11.67° C | 67% | 1008.9 hPa | 0 mm | 2.24 m/s, 135° | 0 W/m² | - |
| 1778037670 | 11.67° C | 67% | 1008.9 hPa | 0 mm | 0 m/s | 0 W/m² | - |
| 1778037070 | 11.11° C | 67% | 1009 hPa | 0 mm | 0.45 m/s, 135° | 0 W/m² | - |
| 1778036470 | 11.11° C | 67% | 1009.1 hPa | 0 mm | 1.79 m/s, 159° | 0 W/m² | - |
| 1778035870 | 11.11° C | 67% | 1009 hPa | 0 mm | 0.89 m/s, 194° | 0 W/m² | - |
| 1778035269 | 11.11° C | 67% | 1009.1 hPa | 0 mm | 0.89 m/s, 204° | 0 W/m² | - |
| 1778034670 | 11.11° C | 67% | 1009.1 hPa | 0 mm | 1.34 m/s, 213° | 0 W/m² | - |
| 1778034069 | 11.11° C | 66% | 1009 hPa | 0 mm | 0.45 m/s, 200° | 0 W/m² | - |
| 1778033469 | 11.11° C | 65% | 1008.9 hPa | 0 mm | 1.34 m/s, 197° | 0 W/m² | - |
| 1778032869 | 11.67° C | 64% | 1008.9 hPa | 0 mm | 0 m/s | 0 W/m² | - |
| 1778032269 | 11.67° C | 64% | 1008.8 hPa | 0 mm | 0.45 m/s, 169° | 0 W/m² | - |
| 1778031669 | 11.67° C | 64% | 1008.9 hPa | 0 mm | 1.34 m/s, 171° | 0 W/m² | - |
| 1778031070 | 12.22° C | 63% | 1008.9 hPa | 0 mm | 0.45 m/s, 163° | 0 W/m² | - |
| 1778030470 | 12.22° C | 63% | 1008.9 hPa | 0 mm | 0.89 m/s, 169° | 0 W/m² | - |
| 1778029869 | 12.22° C | 62% | 1008.8 hPa | 0 mm | 1.34 m/s, 169° | 0 W/m² | - |
| 1778028672 | 12.78° C | 60% | 1008.6 hPa | 0 mm | 1.34 m/s, 132° | 0 W/m² | - |
| 1778028072 | 13.33° C | 60% | 1008.5 hPa | 0 mm | 0 m/s | 0 W/m² | - |
| 1778027471 | 13.33° C | 61% | 1008.4 hPa | 0 mm | 0 m/s | 0 W/m² | - |
| 1778026871 | 13.33° C | 61% | 1008.3 hPa | 0 mm | 0 m/s | 0 W/m² | - |
* Rain latest hour (hover to see other rain measurements)
** Current wind speed in m/s (hover to see current wind gust speed)